This demonstration page uses our WeatherBlox Daily Observations layout. Learn more.

Left ArrowRight Arrow

41.12389, -100.76542

Hourly Observations for September 8, 2020

Temp ( °F °C ) Dew Point ( °F °C ) Humidity (%) Winds ( mph kmh ) Pressure ( in mb ) Visibility ( mi km ) Precip ( " mm )
12:53 am 00:53 Mostly Clear 47 8.3 38 3.3 71 71 NE 18 30 30.01 1016 10 16 0.00 0.00
1:44 am 01:44 Mostly Cloudy with Nearby Thunderstorms 48 8.9 39 3.9 71 71 NNE 16 26 30.15 1021 10 16 0.00 0.00
1:51 am 01:51 Mostly Cloudy with Nearby Thunderstorms 46 8 39 4 76 76 NNE 21 33 30.14 1020 10 16 0.00 0.00
1:53 am 01:53 Mostly Cloudy with Nearby Thunderstorms 47 8.3 39 3.9 74 74 NNE 23 37 30.08 1019 10 16 0.00 0.00
2:10 am 02:10 Windy with Storms Likely 46 7.8 40 4.4 79 79 NNE 20 31 30.13 1020 10 16 0.01 0.25
2:22 am 02:22 Cloudy with Light Rain 46 7.8 40 4.4 79 79 NNE 20 31 30.12 1020 10 16 0.02 0.51
2:34 am 02:34 Cloudy with Nearby Thunderstorms 45 7.2 39 3.9 80 80 NNE 23 37 30.11 1020 10 16 0.03 0.76
2:53 am 02:53 Cloudy with Nearby Thunderstorms 45 7.2 41 5 86 86 NNE 17 28 30.12 1020 10 16 0.05 1.27
3:02 am 03:02 Cloudy with Nearby Thunderstorms 46 7.8 41 5 83 83 NNE 18 30 30.14 1021 10 16 0.00 0.00
3:26 am 03:26 Cloudy with Light Rain 45 7.2 41 5 86 86 N 12 19 30.21 1023 10 16 0.04 1.02
3:31 am 03:31 Cloudy with Nearby Thunderstorms 45 7.2 41 5 86 86 NNE 21 33 30.14 1021 10 16 0.04 1.02
3:43 am 03:43 Cloudy with Nearby Thunderstorms 44 6.7 39 3.9 83 83 NE 21 33 30.17 1022 10 16 0.07 1.78
3:53 am 03:53 Cloudy with Light Rain 44 6.7 39 3.9 83 83 NNE 17 28 30.13 1020 10 16 0.08 2.03
4:02 am 04:02 Cloudy with Thunderstorms 44 6.7 39 3.9 83 83 NE 18 30 30.17 1022 10 16 0.01 0.25
4:17 am 04:17 Cloudy with Rain 44 6.7 40 4.4 85 85 NE 14 22 30.17 1022 9 14 0.07 1.78
4:30 am 04:30 Cloudy with Rain 43 6.1 39 3.9 86 86 NNE 15 24 30.20 1023 10 16 0.10 2.54
4:41 am 04:41 Windy with Storms Likely 43 6.1 39 3.9 86 86 NE 23 37 30.15 1021 10 16 0.10 2.54
4:50 am 04:50 Cloudy with Light Rain 43 6 39 4 87 87 NE 20 31 30.21 1023 10 16 0.12 3.05
4:53 am 04:53 Cloudy with Light Rain 43 6.1 39 3.9 86 86 NNE 17 28 30.14 1021 10 16 0.12 3.05
5:53 am 05:53 Cloudy 41 5 37 2.8 86 86 NNE 16 26 30.20 1023 10 16 0.03 0.76
6:12 am 06:12 Cloudy 40 4.4 36 2.2 86 86 NNE 20 31 30.27 1025 10 16 0.00 0.00
6:53 am 06:53 Cloudy with Light Rain 40 4.4 36 2.2 86 86 NNE 17 28 30.22 1023 10 16 0.01 0.25
7:02 am 07:02 Cloudy with Light Rain 40 4.4 36 2.2 86 86 NNE 17 28 30.27 1025 10 16 0.00 0.00
7:53 am 07:53 Cloudy 40 4.4 36 2.2 86 86 NE 15 24 30.24 1024 10 16 0.00 0.00
8:53 am 08:53 Cloudy 41 5 36 2.2 82 82 NNE 15 24 30.28 1025 10 16 0.00 0.00
9:53 am 09:53 Cloudy 42 5.6 37 2.8 82 82 NNE 18 30 30.29 1026 10 16 0.00 0.00
10:38 am 10:38 Cloudy 42 5.6 37 2.8 82 82 NNE 17 28 30.35 1028 10 16 0.00 0.00
10:53 am 10:53 Cloudy 42 5.6 37 2.8 82 82 NNE 18 30 30.34 1027 10 16 0.00 0.00
11:51 am 11:51 Cloudy 41 5 37 3 87 87 NNE 20 31 30.39 1029 10 16 0.00 0.00
11:53 am 11:53 Cloudy 41 5 37 2.8 86 86 NNE 20 31 30.36 1028 10 16 0.00 0.00
12:42 pm 12:42 Cloudy with Light Rain 41 5 37 2.8 86 86 NNE 16 26 30.39 1029 10 16 0.00 0.00
12:53 pm 12:53 Cloudy 41 5 37 2.8 86 86 NNE 15 24 30.37 1029 10 16 0.00 0.00
1:08 pm 13:08 Cloudy 42 5.6 37 2.8 82 82 NNE 21 33 30.39 1029 10 16 0.00 0.00
1:53 pm 13:53 Cloudy 41 5 36 2.2 82 82 NNE 14 22 30.38 1029 10 16 0.00 0.00
2:29 pm 14:29 Cloudy 43 6.1 37 2.8 80 80 NNE 14 22 30.39 1029 10 16 0.00 0.00
2:53 pm 14:53 Cloudy with Light Rain 42 5.6 36 2.2 79 79 NNE 14 22 30.37 1028 10 16 0.00 0.00
3:41 pm 15:41 Cloudy 42 5.6 35 1.7 76 76 NE 17 28 30.39 1029 10 16 0.00 0.00
3:53 pm 15:53 Cloudy 43 6.1 35 1.7 74 74 NE 13 20 30.38 1029 10 16 0.00 0.00
4:53 pm 16:53 Cloudy 43 6.1 34 1.1 71 71 NNE 14 22 30.38 1029 10 16 0.00 0.00
5:02 pm 17:02 Cloudy 43 6.1 35 1.7 74 74 N 16 26 30.38 1029 10 16 0.00 0.00
5:35 pm 17:35 Cloudy 44 6.7 34 1.1 68 68 NNE 14 22 30.36 1028 10 16 0.00 0.00
5:53 pm 17:53 Cloudy 44 6.7 33 0.6 65 65 NNE 15 24 30.36 1028 10 16 0.00 0.00
6:07 pm 18:07 Cloudy 43 6.1 33 0.6 68 68 NNE 13 20 30.38 1029 10 16 0.00 0.00
6:21 pm 18:21 Cloudy 43 6.1 32 0 65 65 NNE 17 28 30.38 1029 10 16 0.00 0.00
6:53 pm 18:53 Cloudy 42 5.6 31 -0.6 65 65 NNE 15 24 30.38 1029 10 16 0.00 0.00
7:53 pm 19:53 Cloudy 42 5.6 31 -0.6 65 65 NNE 15 24 30.38 1029 10 16 0.00 0.00
8:53 pm 20:53 Cloudy 42 5.6 31 -0.6 65 65 NNE 16 26 30.40 1030 10 16 0.00 0.00
9:53 pm 21:53 Cloudy 41 5 31 -0.6 67 67 NNE 13 20 30.40 1030 10 16 0.00 0.00
10:38 pm 22:38 Cloudy 41 5 31 -0.6 67 67 N 15 24 30.43 1030 10 16 0.00 0.00
10:53 pm 22:53 Cloudy 41 5 31 -0.6 67 67 NNE 16 26 30.41 1030 10 16 0.00 0.00
11:07 pm 23:07 Cloudy 41 5 31 -0.6 67 67 N 10 17 30.44 1031 10 16 0.00 0.00
11:32 pm 23:32 Cloudy 41 5 33 0.6 73 73 N 10 17 30.45 1031 10 16 0.00 0.00
11:53 pm 23:53 Cloudy 40 4.4 32 0 73 73 N 10 17 30.42 1030 10 16 0.00 0.00

Powered by AerisWeather